Weather History for New Bedford, MA

Change the Weather History Date:

Saturday, December 15, 2012

  Actual Average Record
Temperature  
Mean Temperature 34 °F -  
Max Temperature 43 °F 44 °F 62 °F (1975)
Min Temperature 26 °F 28 °F 10 °F (2005)
Degree Days  
Heating Degree Days 30    
Moisture  
Dew Point 25 °F    
Average Humidity 71    
Maximum Humidity 93    
Minimum Humidity 42    
Precipitation  
Precipitation 0.00 in - - ()
Sea Level Pressure  
Sea Level Pressure 30.27 in    
Wind  
Wind Speed 2 mph (NNE)    
Max Wind Speed 8 mph    
Max Gust Speed -    
Visibility 9 miles    
Events      
Averages and records for this station are not official NWS values.
T = Trace of Precipitation, MM = Missing Value Source: NWS Daily Summary

Daily Weather History Graph

Daily Weather History Graph

Search for Another Location

Airport:

Trip Planner

Search our weather history database for the weather conditions in past years. The results will help you decide how hot, cold, wet, or windy it might be!

Date:

Astronomy

Dec. 15, 2012 Rise Set
Actual Time 7:04 AM EST 4:14 PM EST
Civil Twilight 6:32 AM EST 4:45 PM EST
Nautical Twilight 5:57 AM EST 5:20 PM EST
Astronomical Twilight 5:23 AM EST 5:54 PM EST
Moon 8:53 AM EST (12/15) 7:16 PM EST (12/15)
Length of Visible Light 10h 13m
Length of Day
9h 10m
Waxing Crescent, 8% of the Moon is Illuminated
Dec 15
Waxing Crescent
Dec 20
First Quarter
Dec 28
Full
Jan 4
Last Quarter
Jan 11
New

Hourly Weather History & Observations

Time (EST) Temp. Windchill Dew Point Humidity Pressure Visibility Wind Dir Wind Speed Gust Speed Precip Events Conditions
12:53 AM 35.1 °F 32.2 °F 27.0 °F 72% 30.18 in 10.0 mi West 3.5 mph - N/A   Clear
1:53 AM 33.1 °F - 27.0 °F 78% 30.19 in 9.0 mi Calm Calm - N/A   Clear
2:53 AM 33.1 °F - 28.0 °F 82% 30.21 in 9.0 mi Calm Calm - N/A   Clear
3:53 AM 35.1 °F - 28.9 °F 78% 30.21 in 9.0 mi Calm Calm - N/A   Clear
4:53 AM 30.9 °F - 28.0 °F 89% 30.22 in 8.0 mi Calm Calm - N/A   Clear
5:53 AM 28.0 °F - 25.0 °F 88% 30.25 in 7.0 mi Calm Calm - N/A   Clear
6:53 AM 26.6 °F - 24.8 °F 93% 30.26 in 5.0 mi Calm Calm - N/A   Clear
7:53 AM 30.0 °F - 26.1 °F 85% 30.28 in 5.0 mi Calm Calm - N/A   Clear
8:53 AM 37.0 °F - 28.0 °F 70% 30.30 in 10.0 mi Calm Calm - N/A   Clear
9:53 AM 39.9 °F 35.1 °F 25.0 °F 55% 30.31 in 10.0 mi North 6.9 mph - N/A   Clear
10:53 AM 41.0 °F 35.8 °F 25.0 °F 53% 30.30 in 10.0 mi North 8.1 mph - N/A   Clear
11:53 AM 42.1 °F 37.7 °F 23.0 °F 47% 30.27 in 10.0 mi North 6.9 mph - N/A   Clear
12:53 PM 43.0 °F 38.8 °F 21.9 °F 43% 30.27 in 10.0 mi NNE 6.9 mph - N/A   Clear
1:53 PM 43.0 °F 41.3 °F 21.9 °F 43% 30.26 in 10.0 mi Variable 3.5 mph - N/A   Clear
2:53 PM 43.0 °F 41.3 °F 21.0 °F 42% 30.27 in 10.0 mi Variable 3.5 mph - N/A   Clear
3:53 PM 37.0 °F 31.0 °F 23.0 °F 57% 30.28 in 10.0 mi NE 8.1 mph - N/A   Clear
4:53 PM 33.1 °F 27.7 °F 21.0 °F 61% 30.29 in 10.0 mi NE 5.8 mph - N/A   Clear
5:53 PM 33.1 °F - 21.9 °F 64% 30.30 in 10.0 mi Calm Calm - N/A   Clear
6:53 PM 30.0 °F - 23.0 °F 75% 30.30 in 10.0 mi Calm Calm - N/A   Clear
7:53 PM 28.9 °F - 24.1 °F 82% 30.32 in 10.0 mi Calm Calm - N/A   Clear
8:53 PM 27.0 °F - 24.1 °F 89% 30.33 in 10.0 mi Calm Calm - N/A   Clear
9:53 PM 30.0 °F 26.5 °F 25.0 °F 82% 30.31 in 10.0 mi NE 3.5 mph - N/A   Clear
10:53 PM 28.9 °F - 25.0 °F 85% 30.32 in 10.0 mi Calm Calm - N/A   Clear
11:53 PM 30.0 °F 26.5 °F 26.1 °F 85% 30.32 in 10.0 mi NE 3.5 mph - N/A   Clear